Hourly Weather Turka

Today, 8 August, Saturday

Time Temperature Precipitation Wind Pressure Humidity
00:00 +18°C° 0 mm 1 mps 708 mmHg 85%
01:00 +16°C° 0 mm 1 mps 708 mmHg 84%
02:00 +16°C° 0 mm 1 mps 708 mmHg 84%
03:00 +16°C° 0 mm 1 mps 708 mmHg 84%
04:00 +16°C° 0 mm 1 mps 708 mmHg 85%
05:00 +16°C° 0 mm 1 mps 708 mmHg 86%
06:00 +18°C° 0 mm 1 mps 708 mmHg 82%
07:00 +20°C° 0 mm 1 mps 708 mmHg 78%
08:00 +22°C° 0 mm 1 mps 709 mmHg 74%
09:00 +23°C° 0 mm 2 mps 709 mmHg 70%
10:00 +25°C° 0 mm 2 mps 709 mmHg 65%
11:00 +26°C° 0 mm 3 mps 709 mmHg 60%
12:00 +27°C° 0.1 mm 3 mps 709 mmHg 59%
13:00 +27°C° 0.1 mm 3 mps 709 mmHg 58%
14:00 +27°C° 0.1 mm 4 mps 709 mmHg 58%
15:00 +27°C° 0.5 mm 4 mps 708 mmHg 63%
16:00 +26°C° 0.5 mm 3 mps 708 mmHg 69%
17:00 +25°C° 0.5 mm 3 mps 707 mmHg 75%
18:00 +22°C° 0.1 mm 3 mps 707 mmHg 81%
19:00 +21°C° 0.1 mm 2 mps 707 mmHg 87%
20:00 +20°C° 0.1 mm 2 mps 707 mmHg 93%
21:00 +19°C° 0 mm 2 mps 707 mmHg 94%
22:00 +19°C° 0 mm 1 mps 707 mmHg 95%
23:00 +19°C° 0 mm 1 mps 707 mmHg 96%

Tomorrow, 9 August, Sunday

Time Temperature Precipitation Wind Pressure Humidity
00:00 +18°C° 0 mm 1 mps 707 mmHg 97%
01:00 +18°C° 0 mm 1 mps 707 mmHg 97%
02:00 +16°C° 0 mm 1 mps 707 mmHg 97%
03:00 +16°C° 0 mm 1 mps 706 mmHg 97%
04:00 +16°C° 0 mm 1 mps 706 mmHg 97%
05:00 +15°C° 0 mm 1 mps 706 mmHg 97%
06:00 +18°C° 0 mm 1 mps 706 mmHg 93%
07:00 +19°C° 0 mm 1 mps 707 mmHg 89%
08:00 +20°C° 0 mm 1 mps 707 mmHg 85%
09:00 +21°C° 0 mm 2 mps 707 mmHg 77%
10:00 +24°C° 0 mm 3 mps 707 mmHg 68%
11:00 +25°C° 0 mm 3 mps 707 mmHg 60%
12:00 +26°C° 0 mm 3 mps 707 mmHg 58%
13:00 +26°C° 0 mm 3 mps 707 mmHg 57%
14:00 +27°C° 0 mm 3 mps 707 mmHg 55%
15:00 +26°C° 0 mm 3 mps 706 mmHg 58%
16:00 +26°C° 0 mm 3 mps 706 mmHg 61%
17:00 +25°C° 0 mm 3 mps 706 mmHg 64%
18:00 +23°C° 0 mm 2 mps 706 mmHg 74%
19:00 +20°C° 0 mm 2 mps 705 mmHg 84%
20:00 +20°C° 0 mm 1 mps 705 mmHg 93%
21:00 +19°C° 0 mm 1 mps 705 mmHg 94%
22:00 +18°C° 0 mm 1 mps 705 mmHg 94%
23:00 +16°C° 0 mm 0 mps 705 mmHg 94%

Day after tomorrow, 10 August, Monday

Time Temperature Precipitation Wind Pressure Humidity
00:00 +16°C° 0 mm 0 mps 705 mmHg 94%
01:00 +15°C° 0 mm 0 mps 705 mmHg 94%
02:00 +15°C° 0 mm 0 mps 704 mmHg 95%
03:00 +15°C° 0 mm 0 mps 704 mmHg 95%
04:00 +15°C° 0 mm 0 mps 704 mmHg 95%
05:00 +15°C° 0 mm 0 mps 704 mmHg 95%
06:00 +16°C° 0 mm 0 mps 705 mmHg 91%
07:00 +18°C° 0 mm 0 mps 705 mmHg 87%
08:00 +19°C° 0 mm 0 mps 705 mmHg 83%
09:00 +23°C° 0.7 mm 1 mps 705 mmHg 78%
10:00 +24°C° 0.7 mm 1 mps 705 mmHg 74%
11:00 +25°C° 0.7 mm 1 mps 706 mmHg 69%
12:00 +25°C° 1.2 mm 1 mps 705 mmHg 69%
13:00 +25°C° 1.2 mm 2 mps 705 mmHg 69%
14:00 +25°C° 1.2 mm 2 mps 705 mmHg 69%
15:00 +25°C° 0.5 mm 2 mps 705 mmHg 70%
16:00 +25°C° 0.5 mm 2 mps 705 mmHg 70%
17:00 +25°C° 0.5 mm 2 mps 705 mmHg 70%
18:00 +23°C° 0.6 mm 2 mps 705 mmHg 77%
19:00 +21°C° 0.6 mm 1 mps 704 mmHg 85%
20:00 +19°C° 0.6 mm 1 mps 704 mmHg 92%
21:00 +18°C° 0 mm 1 mps 704 mmHg 92%
22:00 +18°C° 0 mm 1 mps 705 mmHg 93%
23:00 +16°C° 0 mm 1 mps 705 mmHg 94%

11 August, Tuesday

Time Temperature Precipitation Wind Pressure Humidity
00:00 +16°C° 0 mm 1 mps 705 mmHg 94%
01:00 +15°C° 0 mm 0 mps 705 mmHg 94%
02:00 +15°C° 0 mm 0 mps 704 mmHg 94%
03:00 +14°C° 0 mm 0 mps 705 mmHg 94%
04:00 +14°C° 0 mm 0 mps 705 mmHg 94%
05:00 +14°C° 0 mm 0 mps 705 mmHg 95%
06:00 +16°C° 0 mm 1 mps 705 mmHg 92%
07:00 +18°C° 0 mm 1 mps 705 mmHg 90%
08:00 +20°C° 0 mm 1 mps 706 mmHg 87%
09:00 +22°C° 0 mm 1 mps 706 mmHg 77%
10:00 +23°C° 0 mm 2 mps 706 mmHg 66%
11:00 +25°C° 0 mm 2 mps 706 mmHg 56%
12:00 +26°C° 0 mm 2 mps 706 mmHg 54%
13:00 +26°C° 0 mm 2 mps 706 mmHg 51%
14:00 +27°C° 0 mm 3 mps 706 mmHg 49%
15:00 +26°C° 0.3 mm 3 mps 706 mmHg 56%
16:00 +25°C° 0.3 mm 3 mps 706 mmHg 62%
17:00 +24°C° 0.3 mm 3 mps 706 mmHg 68%
18:00 +21°C° 0.3 mm 3 mps 705 mmHg 77%
19:00 +19°C° 0.3 mm 2 mps 705 mmHg 85%
20:00 +18°C° 0.3 mm 1 mps 705 mmHg 94%
21:00 +18°C° 0 mm 1 mps 705 mmHg 94%
22:00 +16°C° 0 mm 1 mps 705 mmHg 93%
23:00 +15°C° 0 mm 1 mps 705 mmHg 93%

12 August, Wednesday

Time Temperature Precipitation Wind Pressure Humidity
00:00 +14°C° 0 mm 1 mps 705 mmHg 94%
01:00 +14°C° 0 mm 1 mps 705 mmHg 94%
02:00 +14°C° 0 mm 1 mps 705 mmHg 94%
03:00 +13°C° 0 mm 1 mps 705 mmHg 95%
04:00 +13°C° 0 mm 1 mps 705 mmHg 95%
05:00 +12°C° 0 mm 1 mps 705 mmHg 95%
06:00 +14°C° 0 mm 1 mps 705 mmHg 93%
07:00 +15°C° 0 mm 1 mps 705 mmHg 91%
08:00 +16°C° 0 mm 1 mps 705 mmHg 89%
09:00 +18°C° 0 mm 2 mps 706 mmHg 80%
10:00 +19°C° 0 mm 3 mps 706 mmHg 71%
11:00 +21°C° 0 mm 4 mps 706 mmHg 62%
12:00 +21°C° 0 mm 4 mps 706 mmHg 59%
13:00 +21°C° 0 mm 4 mps 706 mmHg 56%
14:00 +22°C° 0 mm 4 mps 706 mmHg 53%
15:00 +21°C° 0 mm 4 mps 706 mmHg 55%
16:00 +21°C° 0 mm 4 mps 706 mmHg 58%
17:00 +20°C° 0 mm 4 mps 706 mmHg 60%
18:00 +18°C° 0 mm 3 mps 706 mmHg 70%
19:00 +17°C° 0 mm 3 mps 706 mmHg 80%
20:00 +15°C° 0 mm 2 mps 706 mmHg 91%
21:00 +14°C° 0 mm 2 mps 706 mmHg 92%
22:00 +13°C° 0 mm 2 mps 706 mmHg 94%
23:00 +13°C° 0 mm 1 mps 706 mmHg 95%

13 August, Thursday

Time Temperature Precipitation Wind Pressure Humidity
00:00 +12°C° 0 mm 1 mps 706 mmHg 95%
01:00 +12°C° 0 mm 1 mps 706 mmHg 95%
02:00 +11°C° 0 mm 1 mps 706 mmHg 95%
03:00 +11°C° 0 mm 1 mps 706 mmHg 95%
04:00 +10°C° 0 mm 1 mps 706 mmHg 95%
05:00 +10°C° 0 mm 1 mps 706 mmHg 96%
06:00 +12°C° 0 mm 1 mps 706 mmHg 91%
07:00 +13°C° 0 mm 1 mps 706 mmHg 86%
08:00 +15°C° 0 mm 1 mps 707 mmHg 81%
09:00 +17°C° 0 mm 2 mps 707 mmHg 72%
10:00 +18°C° 0 mm 2 mps 707 mmHg 63%
11:00 +19°C° 0 mm 3 mps 707 mmHg 54%
12:00 +20°C° 0 mm 3 mps 707 mmHg 52%
13:00 +20°C° 0 mm 3 mps 707 mmHg 51%
14:00 +21°C° 0 mm 3 mps 707 mmHg 49%
15:00 +21°C° 0 mm 3 mps 707 mmHg 52%
16:00 +20°C° 0 mm 3 mps 707 mmHg 55%
17:00 +20°C° 0 mm 2 mps 707 mmHg 57%
18:00 +18°C° 0 mm 2 mps 706 mmHg 68%
19:00 +16°C° 0 mm 1 mps 706 mmHg 79%
20:00 +13°C° 0 mm 1 mps 706 mmHg 90%
21:00 +13°C° 0 mm 1 mps 706 mmHg 91%
22:00 +12°C° 0 mm 1 mps 706 mmHg 92%
23:00 +11°C° 0 mm 1 mps 706 mmHg 93%
Show more